Find Starlink 31886

NORAD ID: 59662 Int'l Des: 2024-084 Owner: SPXS Country: US Constellation: starlink operational
LEOCIRCULAR

当前视图

正在加载3D地球...

About Starlink 31886

Starlink 31886 (NORAD 59662) is a starlink constellation satellite (v2 mini) launched May 6, 2024 by SPXS of US. It operates in LEO, CIRCULAR orbit with a mass of 730.00 kg.

关于 Starlink 31886

正在加载描述...

即将过境

Passes for default location (London). Set your location on the main map for personalized predictions.

高度历史

Loading altitude history...

两行轨道根数

1 59662U 24084J 26174.69588172 .00000454 00000-0 26025-4 0 9994
2 59662 43.0024 163.2881 0001654 280.7905 79.2760 15.27575823120581
Epoch: Jun 23, 2026 • Age: 13 hours

当前状态

高度 487.3 km
速度 7.63 km/s
星下点 43.16°N, 106.6°W
发射日期 May 6, 2024
运行时间 2.1 years
类型 internet

技术详情

分类 Payload
质量 730.00 kg
干质量 700.00 kg
总质量 730.00 kg
长度 0.30 m
直径 4.10 m
跨度 29.00 m
形状 Box + pan
制造商 SPXS
平台类型 Starlink V2M
阶段状态 In Orbit
所有者/国家 SPXS/US

Most Searched